Back to catalog

DASH 2 DEB *

LostPO
NORAD 20153·DEBRIS·🇺🇸 United States

Launched Jul 19, 1963 from Vandenberg Space Force Base

Loading…

Next Passes (next 24 hours)

TLE

StaleSource: Space-Track

Epoch: Oct 5, 2013, 18:48 UTC

1 20153U 63030H   13278.78375480 -.00001162  00000-0 -23696-1 0  9995
2 20153  89.4481 220.6622 2335254 346.6222  27.2767  8.81971941757071

Track DASH 2 DEB * in real time with AllMySat

Download on the App Store